�������l�o���
Date,Time,MP-1(��Sv/h),MP-2(��Sv/h),MP-3(��Sv/h),MP-4(��Sv/h),MP-5(��Sv/h),MP-6(��Sv/h),MP-7(��Sv/h),MP-8(��Sv/h),����,����(m/s),���J
2019/10/21,00:00,0.709,1.004,0.667,1.235,0.867,0.408,0.713,0.674,�k,2.2,��
2019/10/21,00:10,0.710,1.005,0.667,1.234,0.868,0.407,0.712,0.674,�k,2.5,��
2019/10/21,00:20,0.709,1.005,0.667,1.234,0.867,0.407,0.711,0.674,�k�k��,2.5,��
2019/10/21,00:30,0.707,1.006,0.668,1.235,0.867,0.408,0.710,0.673,�k,3.2,��
2019/10/21,00:40,0.708,1.006,0.668,1.234,0.868,0.408,0.711,0.675,�k�k��,3.8,��
2019/10/21,00:50,0.708,1.007,0.667,1.233,0.868,0.407,0.712,0.674,�k�k��,3.8,��
2019/10/21,01:00,0.708,1.006,0.667,1.233,0.868,0.407,0.712,0.674,�k�k��,3.5,��
2019/10/21,01:10,0.709,1.006,0.668,1.234,0.868,0.407,0.710,0.673,�k�k��,2.9,��
2019/10/21,01:20,0.710,1.007,0.668,1.236,0.867,0.410,0.711,0.673,�k�k��,2.8,��
2019/10/21,01:30,0.709,1.005,0.667,1.234,0.868,0.408,0.712,0.674,�k�k��,2.9,��
2019/10/21,01:40,0.708,1.006,0.668,1.235,0.870,0.408,0.712,0.674,�k�k��,2.6,��
2019/10/21,01:50,0.708,1.005,0.668,1.236,0.867,0.408,0.712,0.674,�k�k��,2.2,��
2019/10/21,02:00,0.706,1.005,0.667,1.234,0.868,0.410,0.713,0.674,�k�k��,2.5,��
2019/10/21,02:10,0.710,1.004,0.667,1.235,0.868,0.407,0.712,0.675,�k�k��,2.9,��
2019/10/21,02:20,0.709,1.006,0.667,1.234,0.867,0.409,0.711,0.674,�k�k��,2.2,��
2019/10/21,02:30,0.707,1.005,0.668,1.234,0.868,0.407,0.711,0.674,�k�k��,2.5,��
2019/10/21,02:40,0.708,1.006,0.666,1.236,0.868,0.409,0.712,0.675,�k�k��,2.2,��
2019/10/21,02:50,0.707,1.005,0.667,1.236,0.869,0.408,0.711,0.675,�k�k��,2.3,��
2019/10/21,03:00,0.707,1.005,0.667,1.235,0.867,0.408,0.712,0.673,�k�k��,2.1,��
2019/10/21,03:10,0.708,1.005,0.667,1.237,0.868,0.409,0.710,0.674,�k��,2.0,��
2019/10/21,03:20,0.709,1.006,0.668,1.236,0.870,0.410,0.712,0.675,�k�k��,2.2,��
2019/10/21,03:30,0.708,1.004,0.667,1.234,0.868,0.408,0.712,0.675,�k�k��,1.5,��
2019/10/21,03:40,0.709,1.006,0.667,1.234,0.869,0.408,0.710,0.674,�k��,1.6,��
2019/10/21,03:50,0.710,1.005,0.669,1.236,0.869,0.407,0.712,0.674,�k��,1.3,��
2019/10/21,04:00,0.709,1.003,0.668,1.236,0.868,0.408,0.713,0.674,�k,1.7,��
2019/10/21,04:10,0.708,1.004,0.669,1.236,0.868,0.407,0.710,0.675,�k�k��,2.3,��
2019/10/21,04:20,0.708,1.005,0.668,1.235,0.867,0.408,0.712,0.675,�k�k��,2.9,��
2019/10/21,04:30,0.709,1.005,0.669,1.235,0.867,0.409,0.711,0.675,�k��,3.0,��
2019/10/21,04:40,0.707,1.005,0.668,1.236,0.870,0.408,0.710,0.674,�k�k��,2.7,��
2019/10/21,04:50,0.706,1.005,0.667,1.237,0.868,0.409,0.714,0.675,�k��,3.3,��
2019/10/21,05:00,0.707,1.004,0.667,1.238,0.868,0.407,0.712,0.674,�k��,3.1,��
2019/10/21,05:10,0.708,1.004,0.669,1.235,0.868,0.409,0.710,0.674,�k��,3.3,��
2019/10/21,05:20,0.710,1.006,0.667,1.235,0.867,0.408,0.711,0.674,�k��,3.0,��
2019/10/21,05:30,0.708,1.005,0.668,1.236,0.870,0.409,0.712,0.677,�k�k��,3.0,��
2019/10/21,05:40,0.709,1.006,0.667,1.235,0.866,0.409,0.710,0.675,�k�k��,3.1,��
2019/10/21,05:50,0.708,1.005,0.669,1.236,0.869,0.407,0.712,0.675,�k�k��,2.9,��
2019/10/21,06:00,0.707,1.006,0.669,1.236,0.867,0.408,0.712,0.675,�k��,3.0,��
2019/10/21,06:10,0.708,1.004,0.667,1.235,0.867,0.409,0.712,0.674,�k��,2.4,��
2019/10/21,06:20,0.706,1.003,0.667,1.234,0.869,0.408,0.712,0.674,�k��,2.3,��
2019/10/21,06:30,0.709,1.003,0.666,1.237,0.868,0.408,0.712,0.675,�k��,1.9,��
2019/10/21,06:40,0.708,1.004,0.666,1.236,0.868,0.409,0.711,0.673,�k��,2.2,��
2019/10/21,06:50,0.709,1.004,0.668,1.237,0.868,0.408,0.713,0.673,�k��,2.2,��
2019/10/21,07:00,0.708,1.005,0.668,1.235,0.868,0.408,0.711,0.675,�k��,2.7,��
2019/10/21,07:10,0.708,1.006,0.668,1.235,0.865,0.408,0.711,0.673,�k�k��,3.0,��
2019/10/21,07:20,0.706,1.006,0.667,1.235,0.866,0.410,0.711,0.675,�k�k��,2.9,��
2019/10/21,07:30,0.708,1.005,0.668,1.235,0.866,0.410,0.712,0.674,�k�k��,1.9,��
2019/10/21,07:40,0.709,1.004,0.668,1.237,0.868,0.408,0.711,0.676,�k�k��,1.7,��
2019/10/21,07:50,0.708,1.005,0.667,1.234,0.867,0.408,0.712,0.677,�k,2.0,��
2019/10/21,08:00,0.710,1.006,0.668,1.236,0.870,0.410,0.712,0.675,�k�k��,2.2,��
2019/10/21,08:10,0.710,1.004,0.669,1.238,0.870,0.409,0.713,0.675,�k�k��,1.6,��
2019/10/21,08:20,0.710,1.004,0.667,1.236,0.869,0.409,0.713,0.675,�k�k��,2.3,��
2019/10/21,08:30,0.712,1.002,0.668,1.238,0.870,0.409,0.714,0.675,�k�k��,1.4,��
2019/10/21,08:40,0.711,1.003,0.665,1.238,0.868,0.411,0.709,0.674,�k�k��,0.9,��
2019/10/21,08:50,0.710,1.000,0.667,1.236,0.870,0.410,0.711,0.675,�k,1.7,��
2019/10/21,09:00,0.710,1.003,0.665,1.237,0.871,0.409,0.711,0.675,�k�k��,2.3,��
2019/10/21,09:10,0.711,0.999,0.669,1.237,0.872,0.408,0.711,0.677,�k�k��,2.0,��
2019/10/21,09:20,0.710,0.999,0.670,1.237,0.869,0.409,0.712,0.676,�k�k��,2.0,��
2019/10/21,09:30,0.711,0.999,0.667,1.236,0.872,0.409,0.713,0.675,�k�k��,2.0,��
2019/10/21,09:40,0.709,0.996,0.668,1.236,0.869,0.408,0.711,0.675,�k,3.3,��
2019/10/21,09:50,0.710,0.998,0.668,1.236,0.873,0.409,0.710,0.676,�k�k��,2.6,��
2019/10/21,10:00,0.709,0.999,0.668,1.238,0.868,0.407,0.714,0.675,�k�k��,2.9,��
2019/10/21,10:10,0.710,0.997,0.667,1.240,0.870,0.407,0.712,0.674,�k,3.3,��
2019/10/21,10:20,0.708,1.002,0.666,1.239,0.870,0.407,0.713,0.674,�k,3.1,��
2019/10/21,10:30,0.709,1.001,0.667,1.240,0.871,0.407,0.711,0.674,�k,4.0,��
2019/10/21,10:40,0.709,1.005,0.665,1.240,0.871,0.408,0.711,0.674,�k�k��,3.8,��
2019/10/21,10:50,0.710,1.003,0.665,1.239,0.872,0.407,0.713,0.675,�k,4.0,��
2019/10/21,11:00,0.709,1.000,0.664,1.237,0.870,0.406,0.712,0.673,�k,3.4,��
2019/10/21,11:10,0.708,1.001,0.665,1.238,0.871,0.408,0.712,0.674,�k�k��,4.3,��
2019/10/21,11:20,0.709,1.001,0.667,1.239,0.870,0.407,0.712,0.673,�k,4.0,��
2019/10/21,11:30,0.709,1.004,0.667,1.240,0.870,0.408,0.713,0.672,�k,4.0,��
2019/10/21,11:40,0.712,1.005,0.666,1.240,0.871,0.408,0.713,0.676,�k,3.9,��
2019/10/21,11:50,0.711,1.004,0.667,1.240,0.872,0.406,0.712,0.674,�k,4.0,��
2019/10/21,12:00,0.711,1.007,0.666,1.241,0.873,0.407,0.712,0.675,�k�k��,4.1,��
2019/10/21,12:10,0.710,1.007,0.668,1.239,0.871,0.407,0.712,0.675,�k�k��,4.7,��
2019/10/21,12:20,0.711,1.008,0.669,1.239,0.872,0.407,0.712,0.675,�k,4.6,��
2019/10/21,12:30,0.711,1.011,0.669,1.240,0.873,0.407,0.713,0.674,�k�k��,5.0,��
2019/10/21,12:40,0.711,1.008,0.670,1.241,0.873,0.407,0.712,0.673,�k�k��,5.0,��
2019/10/21,12:50,0.712,1.008,0.668,1.242,0.872,0.408,0.713,0.676,�k,5.8,��
2019/10/21,13:00,0.711,1.006,0.670,1.242,0.874,0.406,0.714,0.674,�k,4.9,��
2019/10/21,13:10,0.710,1.005,0.666,1.239,0.872,0.407,0.715,0.673,�k�k��,4.6,��
2019/10/21,13:20,0.711,1.006,0.669,1.240,0.872,0.408,0.712,0.674,�k,5.8,��
2019/10/21,13:30,0.710,1.004,0.667,1.240,0.874,0.407,0.714,0.675,�k,5.0,��
2019/10/21,13:40,0.713,1.001,0.665,1.241,0.873,0.409,0.713,0.673,�k�k��,4.6,��
2019/10/21,13:50,0.711,1.007,0.667,1.243,0.874,0.409,0.712,0.675,�k�k��,4.3,��
2019/10/21,14:00,0.712,1.005,0.667,1.243,0.875,0.407,0.713,0.673,�k�k��,4.1,��
2019/10/21,14:10,0.712,1.008,0.666,1.241,0.875,0.407,0.713,0.676,�k�k��,3.8,��
2019/10/21,14:20,0.710,1.008,0.666,1.240,0.874,0.409,0.713,0.675,�k,3.4,��
2019/10/21,14:30,0.712,1.008,0.667,1.239,0.873,0.408,0.713,0.674,�k,3.3,��
2019/10/21,14:40,0.711,1.005,0.668,1.243,0.873,0.408,0.712,0.675,�k,2.7,��
2019/10/21,14:50,0.712,1.005,0.670,1.242,0.874,0.408,0.712,0.675,�k,3.0,��
2019/10/21,15:00,0.712,1.007,0.671,1.246,0.874,0.408,0.714,0.676,�k,2.6,��
2019/10/21,15:10,0.711,1.005,0.670,1.244,0.873,0.409,0.713,0.675,�k,3.0,��
2019/10/21,15:20,0.714,1.011,0.670,1.242,0.872,0.408,0.712,0.676,�k,2.9,��
2019/10/21,15:30,0.712,1.007,0.671,1.243,0.876,0.410,0.713,0.675,�k�k��,3.1,��
2019/10/21,15:40,0.714,1.011,0.671,1.243,0.876,0.409,0.712,0.675,�k�k��,2.9,��
2019/10/21,15:50,0.713,1.012,0.671,1.243,0.877,0.411,0.713,0.675,�k,2.6,��
2019/10/21,16:00,0.713,1.012,0.671,1.245,0.876,0.410,0.713,0.676,�k,2.2,��
2019/10/21,16:10,0.713,1.011,0.670,1.243,0.878,0.409,0.713,0.676,�k�k��,2.9,��
2019/10/21,16:20,0.714,1.012,0.671,1.243,0.877,0.409,0.711,0.678,�k�k��,2.7,��
2019/10/21,16:30,0.714,1.012,0.672,1.242,0.878,0.410,0.714,0.677,�k�k��,2.5,��
2019/10/21,16:40,0.716,1.014,0.671,1.241,0.877,0.409,0.713,0.678,�k�k��,2.3,��
2019/10/21,16:50,0.712,1.013,0.672,1.241,0.878,0.412,0.713,0.680,�k�k��,2.3,��
2019/10/21,17:00,0.713,1.014,0.671,1.243,0.878,0.411,0.714,0.678,�k�k��,2.3,��
2019/10/21,17:10,0.713,1.013,0.672,1.242,0.877,0.411,0.713,0.676,�k�k��,2.0,��
2019/10/21,17:20,0.713,1.012,0.672,1.241,0.877,0.409,0.712,0.678,�k�k��,1.9,��
2019/10/21,17:30,0.714,1.014,0.670,1.245,0.879,0.410,0.713,0.678,�k�k��,1.8,��
2019/10/21,17:40,0.713,1.014,0.671,1.245,0.877,0.410,0.714,0.676,�k�k��,1.9,��
2019/10/21,17:50,0.714,1.015,0.672,1.243,0.878,0.410,0.716,0.678,�k�k��,1.6,��
2019/10/21,18:00,0.713,1.013,0.672,1.245,0.878,0.410,0.715,0.678,�k�k��,1.8,��
2019/10/21,18:10,0.714,1.014,0.670,1.245,0.877,0.411,0.716,0.676,�k�k��,2.1,��
2019/10/21,18:20,0.712,1.016,0.672,1.243,0.877,0.410,0.712,0.677,�k�k��,2.2,��
2019/10/21,18:30,0.713,1.015,0.672,1.242,0.878,0.410,0.715,0.680,�k�k��,2.5,��
2019/10/21,18:40,0.713,1.015,0.671,1.243,0.875,0.410,0.714,0.678,�k�k��,2.8,��
2019/10/21,18:50,0.714,1.018,0.673,1.246,0.877,0.412,0.714,0.679,�k�k��,3.4,��
2019/10/21,19:00,0.715,1.016,0.672,1.244,0.878,0.411,0.714,0.676,�k�k��,2.4,��
2019/10/21,19:10,0.715,1.016,0.671,1.244,0.877,0.410,0.712,0.678,�k�k��,2.7,��
2019/10/21,19:20,0.714,1.014,0.673,1.243,0.877,0.409,0.714,0.677,�k�k��,2.6,��
2019/10/21,19:30,0.713,1.013,0.670,1.245,0.878,0.410,0.713,0.676,�k�k��,2.5,��
2019/10/21,19:40,0.715,1.015,0.672,1.244,0.879,0.410,0.714,0.679,�k�k��,2.3,��
2019/10/21,19:50,0.712,1.014,0.672,1.245,0.876,0.410,0.713,0.678,�k�k��,1.6,��
2019/10/21,20:00,0.713,1.014,0.673,1.243,0.880,0.409,0.712,0.679,�k,1.5,��
2019/10/21,20:10,0.713,1.015,0.673,1.244,0.879,0.411,0.713,0.678,�k�k��,2.5,��
2019/10/21,20:20,0.714,1.015,0.674,1.245,0.878,0.410,0.716,0.676,�k�k��,2.7,��
2019/10/21,20:30,0.713,1.013,0.673,1.245,0.879,0.409,0.712,0.677,�k�k��,2.5,��
2019/10/21,20:40,0.714,1.017,0.672,1.243,0.878,0.410,0.714,0.678,�k�k��,2.3,��
2019/10/21,20:50,0.712,1.016,0.671,1.245,0.879,0.410,0.712,0.679,�k,1.8,��
2019/10/21,21:00,0.714,1.014,0.672,1.243,0.878,0.411,0.714,0.678,�k�k��,2.3,��
2019/10/21,21:10,0.713,1.015,0.671,1.245,0.878,0.411,0.714,0.678,�k�k��,1.5,��
2019/10/21,21:20,0.714,1.015,0.672,1.242,0.877,0.410,0.713,0.677,�k�k��,2.1,��
2019/10/21,21:30,0.714,1.014,0.671,1.244,0.876,0.412,0.714,0.677,�k�k��,1.9,��
2019/10/21,21:40,0.712,1.016,0.672,1.243,0.879,0.411,0.714,0.678,�k�k��,1.7,��
2019/10/21,21:50,0.713,1.014,0.673,1.242,0.877,0.411,0.713,0.679,�k�k��,1.6,��
2019/10/21,22:00,0.712,1.013,0.673,1.245,0.879,0.411,0.714,0.677,�k�k��,2.0,��
2019/10/21,22:10,0.714,1.014,0.672,1.245,0.877,0.411,0.714,0.677,�k�k��,2.3,��
2019/10/21,22:20,0.713,1.016,0.672,1.244,0.879,0.411,0.713,0.676,�k�k��,1.8,��
2019/10/21,22:30,0.714,1.014,0.672,1.246,0.878,0.411,0.714,0.678,�k�k��,1.9,��
2019/10/21,22:40,0.713,1.016,0.672,1.244,0.876,0.411,0.715,0.677,�k�k��,2.7,��
2019/10/21,22:50,0.715,1.015,0.671,1.243,0.877,0.411,0.714,0.677,�k�k��,2.4,��
2019/10/21,23:00,0.712,1.014,0.672,1.245,0.875,0.409,0.714,0.677,�k�k��,3.2,��
2019/10/21,23:10,0.711,1.015,0.673,1.242,0.878,0.410,0.713,0.677,�k�k��,3.1,��
2019/10/21,23:20,0.715,1.015,0.672,1.245,0.878,0.410,0.714,0.677,�k�k��,2.7,�L
2019/10/21,23:30,0.713,1.014,0.672,1.242,0.879,0.412,0.714,0.678,�k�k��,2.8,�L
2019/10/21,23:40,0.712,1.014,0.672,1.244,0.879,0.411,0.713,0.677,�k�k��,2.0,��
2019/10/21,23:50,0.714,1.015,0.673,1.245,0.878,0.411,0.715,0.678,�k�k��,1.7,��
